Content
SEND FEEDBACK

Daily
Averages
Monthly
Summary
United States of America

NILES, MICHIGAN


Home > North America > United States > Michigan
Elevation: 220 meters     Latitude: 41 50N     Longitude: 086 15W

WEATHER
 
SELECT A DAY
Number of Records: 213,674;   Date Range: 1/1/95 - 7/26/14
 
SHARE

PRINT THIS DATA

[ ← Previous Day ]
WEATHER ALMANAC - 31 JANUARY, 2013
[ Next Day → ]
[ °F ]   °C
Weather ElementAverageHighLow
Temperature-7.8 °C-4 °C (1:01 am)-11.1 °C (9:54 pm)
Dewpoint-11.1 °C-7.8 °C (12:54 am)-14 °C (11:43 pm)
Humidity77.8 %86 % (3:59 am)63 % (7:50 am)
Barometer1008.5 hPa1017.9 hPa (11:54 pm)1000 hPa (1:01 am)
Wind Speed28.5 km/h40.7 km/h (12:54 am)
Wind Gust51.8 km/h (12:54 am)
Weather ElementAverage
Visibility3.1 km
Wind DirectionW (267.3 °)

Weather ElementTotal
Precipitation1.02 mm
Heating Degree Days25.9 (Base 18.3)
Averaged from 67 records on 31 January, 2013
WEATHER CONDITIONS BREAKOUT
WIND DIRECTION BREAKOUT
WEATHER BY HOUR - 31 JANUARY, 2013
[ °F ]   °C
Local TimeTemperatureDewpointHumidityBarometerVisibilityWind DirectionWind SpeedGust SpeedPrecipitationEventsConditions
12:54 AM-4.4 °C-7.8 °C77 %1000.7 hPa4.8 kmWest (280°)40.7 km/h51.8 km/h0 mmSnowLight Snow
1:01 AM-4 °C-8 °C74 %1000 hPa4 kmWest (280°)37 km/h51.8 km/h0 mmSnowLight Snow
1:12 AM-4 °C-8 °C74 %1000.3 hPa4.8 kmWNW (290°)33.3 km/h0 mmSnowLight Snow
1:26 AM-4 °C-8 °C74 %1000.3 hPa8 kmWNW (290°)35.2 km/h46.3 km/h0 mmSnowLight Snow
1:54 AM-5 °C-8.9 °C74 %1001.4 hPa6.4 kmWNW (290°)33.3 km/h50.1 km/h0 mmSnowLight Snow
2:11 AM-5 °C-8 °C80 %1001 hPa4 kmWest (280°)33.3 km/h46.3 km/h0 mmSnowLight Snow
2:19 AM-5 °C-8 °C80 %1001.4 hPa1.9 kmWest (270°)31.5 km/h40.7 km/h0 mmSnowLight Snow
2:36 AM-5 °C-9 °C74 %1002 hPa4.8 kmWest (280°)29.6 km/h50.1 km/h0 mmSnowLight Snow
2:54 AM-5.6 °C-8.9 °C78 %1003 hPa4.8 kmWest (280°)27.8 km/h46.3 km/h0 mmSnowLight Snow
3:14 AM-6 °C-9 °C80 %1002.4 hPa2.9 kmWNW (290°)35.2 km/h0 mmSnowLight Snow
3:23 AM-6 °C-9 °C80 %1002.4 hPa4.8 kmWNW (290°)33.3 km/h44.4 km/h0 mmSnowLight Snow
3:54 AM-5.6 °C-9.4 °C75 %1003.4 hPa4 kmWest (280°)33.3 km/h0 mmSnowLight Snow
3:59 AM-6 °C-8 °C86 %1002.7 hPa1.3 kmWest (280°)27.8 km/h0 mmSnowLight Snow
4:12 AM-6 °C-9 °C80 %1002.7 hPa4 kmWest (270°)29.6 km/h38.9 km/h0 mmSnowLight Snow
4:20 AM-6 °C-10 °C74 %1002.7 hPa12.9 kmWest (270°)35.2 km/h46.3 km/h0 mmOvercast
4:54 AM-6.1 °C-10 °C74 %1004.4 hPa4.8 kmWest (260°)29.6 km/h50.1 km/h0 mmSnowLight Snow
5:21 AM-7 °C-10 °C80 %1004.1 hPa3.2 kmWest (260°)31.5 km/h46.3 km/h0 mmSnowLight Snow
5:54 AM-6.7 °C-10.6 °C74 %1005.4 hPa4 kmWSW (250°)27.8 km/h42.6 km/h0 mmSnowLight Snow
6:07 AM-7 °C-10 °C80 %1004.4 hPa2.9 kmWSW (250°)25.9 km/h0 mmSnowLight Snow
6:17 AM-7 °C-10 °C80 %1004.4 hPa3.2 kmWest (260°)27.8 km/h0 mmSnowLight Snow
6:54 AM-7.2 °C-11.1 °C74 %1006.1 hPa3.2 kmWest (270°)29.6 km/h0 mmSnowLight Snow
7:21 AM-7 °C-12 °C68 %1005.4 hPa3.2 kmWest (280°)33.3 km/h51.8 km/h0 mmSnowLight Snow
7:27 AM-7 °C-12 °C68 %1005.4 hPa3.2 kmWest (270°)31.5 km/h48.1 km/h0 mmSnowLight Snow
7:50 AM-7 °C-13 °C63 %1005.8 hPa9.7 kmWest (280°)27.8 km/h0 mmSnowLight Snow
7:54 AM-7.2 °C-12.8 °C65 %1007.1 hPa11.3 kmWest (280°)27.8 km/h38.9 km/h0 mmSnowLight Snow
8:18 AM-7 °C-12 °C68 %1006.4 hPa3.2 kmWest (270°)27.8 km/h40.7 km/h0 mmSnowLight Snow
8:20 AM-7 °C-12 °C68 %1006.4 hPa1.6 kmWest (260°)22.2 km/h40.7 km/h0 mmSnowLight Snow
8:34 AM-8 °C-11 °C79 %1006.8 hPa0.8 kmWest (260°)20.4 km/h0 mmSnowSnow
8:54 AM-8.3 °C-10.6 °C84 %1008.1 hPa0.8 kmWSW (240°)22.2 km/h0.25 mmFog-SnowSnow
9:31 AM-8 °C-11 °C79 %1007.5 hPa0.8 kmWSW (240°)22.2 km/h0 mmFog-SnowSnow
9:54 AM-8.3 °C-10.6 °C84 %1009.1 hPa0.8 kmWSW (240°)20.4 km/h0 mmFog-SnowSnow
10:44 AM-8 °C-11 °C79 %1008.5 hPa6.4 kmWSW (250°)25.9 km/h0 mmSnowLight Snow
10:54 AM-7.8 °C-11.1 °C78 %1009.8 hPa11.3 kmWSW (250°)22.2 km/h0 mmSnowLight Snow
11:11 AM-7 °C-11 °C74 %1008.8 hPa2.9 kmWSW (240°)31.5 km/h0 mmSnowLight Snow
11:18 AM-7 °C-10 °C80 %1008.8 hPa3.2 kmWest (260°)25.9 km/h38.9 km/h0 mmSnowLight Snow
11:27 AM-7 °C-11 °C74 %1009.1 hPa0.8 kmWSW (250°)27.8 km/h38.9 km/h0 mmSnowSnow
11:54 AM-7.8 °C-11.1 °C78 %1010.5 hPa0.8 kmWSW (250°)27.8 km/h44.4 km/h0 mmSnowSnow
12:20 PM-8 °C-12 °C73 %1009.5 hPa1.6 kmWSW (250°)35.2 km/h44.4 km/h0 mmSnowLight Snow
12:54 PM-7.8 °C-11.7 °C74 %1010.8 hPa6.4 kmWest (270°)29.6 km/h0 mmSnowLight Snow
1:29 PM-8 °C-12 °C73 %1009.5 hPa0.8 kmWest (270°)35.2 km/h0 mmSnowSnow
1:40 PM-7 °C-11 °C74 %1009.8 hPa0.8 kmWest (280°)27.8 km/h37 km/h0 mmSnowSnow
1:47 PM-8 °C-11 °C79 %1009.8 hPa0.8 kmWest (280°)33.3 km/h44.4 km/h0 mmSnowHeavy Snow
1:50 PM-8 °C-11 °C79 %1009.8 hPa0.3 kmWest (270°)35.2 km/h44.4 km/h0 mmFog-SnowHeavy Snow
1:54 PM-8.3 °C-10.6 °C84 %1011.2 hPa0.3 kmWest (270°)29.6 km/h0 mmFog-SnowHeavy Snow
1:57 PM-8 °C-11 °C79 %1009.8 hPa0.8 kmWest (270°)29.6 km/h0 mmFog-SnowLight Snow
2:54 PM-8.3 °C-11.7 °C77 %1011.9 hPa0.8 kmWest (270°)22.2 km/h42.6 km/h0 mmSnowSnow
3:54 PM-8.9 °C-12.2 °C77 %1012.2 hPa1.6 kmWSW (250°)27.8 km/h44.4 km/h0 mmSnowLight Snow
4:12 PM-9 °C-12 °C79 %1010.8 hPa3.2 kmWest (260°)37 km/h42.6 km/h0 mmSnowLight Snow
4:23 PM-9 °C-12 °C79 %1010.8 hPa3.2 kmWest (260°)31.5 km/h40.7 km/h0 mmSnowLight Snow
4:25 PM-9 °C-13 °C73 %1010.8 hPa3.2 kmWest (260°)33.3 km/h44.4 km/h0 mmSnowLight Snow
4:54 PM-9.4 °C-12.8 °C77 %1012.9 hPa3.2 kmWSW (250°)24.1 km/h0 mmSnowLight Snow
5:45 PM-9 °C-12 °C79 %1011.9 hPa1.3 kmWest (260°)27.8 km/h0 mmSnowLight Snow
5:54 PM-9.4 °C-12.2 °C80 %1013.2 hPa1.3 kmWest (270°)25.9 km/h0 mmSnowLight Snow
6:54 PM-10 °C-12.2 °C84 %1014.2 hPa1.6 kmWest (260°)20.4 km/h0 mmSnowLight Snow
7:54 PM-10.6 °C-12.8 °C84 %1015.2 hPa1.6 kmWSW (250°)22.2 km/h0.25 mmSnowLight Snow
8:01 PM-11 °C-13 °C85 %1013.9 hPa1.3 kmWSW (250°)22.2 km/h0 mmSnowLight Snow
8:18 PM-11 °C-13 °C85 %1013.9 hPa0.8 kmWSW (250°)22.2 km/h0 mmFog-SnowSnow
8:44 PM-11 °C-13 °C85 %1014.2 hPa1.3 kmWest (270°)25.9 km/h44.4 km/h0.25 mmSnowLight Snow
8:54 PM-10.6 °C-13.9 °C77 %1015.9 hPa2.9 kmWest (280°)25.9 km/h42.6 km/h0.25 mmSnowLight Snow
9:54 PM-11.1 °C-13.3 °C84 %1016.6 hPa1.6 kmWest (270°)27.8 km/h0 mmSnowLight Snow
10:06 PM-11 °C-13 °C85 %1015.2 hPa2.4 kmWest (270°)22.2 km/h0 mmSnowLight Snow
10:27 PM-11 °C-13 °C85 %1015.6 hPa1.6 kmWest (280°)25.9 km/h0 mmSnowLight Snow
10:44 PM-11 °C-13 °C85 %1015.6 hPa1.3 kmWest (280°)24.1 km/h0 mmSnowLight Snow
10:54 PM-11.1 °C-13.3 °C84 %1017.3 hPa1.3 kmWest (280°)24.1 km/h0 mmSnowLight Snow
11:03 PM-11 °C-13 °C85 %1015.9 hPa1.3 kmWest (280°)20.4 km/h35.2 km/h0 mmSnowLight Snow
11:43 PM-11 °C-14 °C79 %1016.3 hPa1.6 kmWest (280°)24.1 km/h40.7 km/h0 mmSnowLight Snow
11:54 PM-11.1 °C-13.9 °C80 %1017.9 hPa1.6 kmWest (280°)25.9 km/h38.9 km/h0 mmSnowLight Snow
Hourly data recorded from KSBN, located 0 kilometers away from Niles, Michigan







STORIES FROM OUR PARTNERS